Tracking 29892 objects as of 21-Nov-2024
HD Live streaming from Space Station
objects crossing your sky now

STARLINK-11314

Track STARLINK-11314 now!
10-day predictions
STARLINK-11314 is classified as:


NORAD ID: 61878
Int'l Code: 2024-204E
Perigee: 320.8 km
Apogee: 321.7 km
Inclination: 53.2 °
Period: 90.8 minutes
Semi major axis: 6692 km
RCS: Unknown
Launch date: November 9, 2024
Source: United States (US)
Launch site: AIR FORCE WESTERN TEST RANGE (AFWTR)
Your satellite tracking list
Your tracking list is empty




NASA's NSSDC Master Catalog

Two Line Element Set (TLE):
1 61878U 24204E   24326.16667824 -.00542061  00000-0 -23099-2 0  9994
2 61878  53.1644 171.9672 0000662  52.4286 302.9455 15.85792796  2525
Source of the keplerian elements: AFSPC